QPF
0.00 0.00 0.00 0.00 0.00 0.00 0.00 0.00 0.00 0.00 0.00 0.00 0.00 0.00 0.01 0.01 0.01 0.01 0.01 0.01 0.01 0.01 0.01 0.01 0.01 0.01 0.00 0.00 0.00 0.00 0.00 0.00 0.00 0.00 0.01 0.02 0.03 0.02 0.02 0.01 0.01 0.01 0.01
0.00 0.00 0.00 0.00 0.00 0.00 0.00 0.00 0.00 0.00 0.00 0.00 0.00 0.00 0.00 0.00 0.00 0.00 0.01 0.01 0.01 0.01 0.01 0.01 0.01 0.01 0.00 0.00 0.00 0.00 0.00 0.00 0.00 0.00 0.00 0.00 0.02 0.02 0.02 0.01 0.01 0.01 0.01
0.00 0.00 0.00 0.00 0.00 0.00 0.00 0.00 0.00 0.00 0.00 0.00 0.00 0.00 0.00 0.00 0.00 0.00 0.00 0.00 0.00 0.00 0.00 0.00 0.00 0.00 0.00 0.00 0.00 0.00 0.00 0.00 0.00 0.00 0.00 0.00 0.01 0.02 0.02 0.02 0.02 0.02 0.01
0.00 0.00 0.00 0.00 0.00 0.00 0.00 0.00 0.00 0.00 0.00 0.00 0.00 0.00 0.00 0.00 0.00 0.00 0.00 0.00 0.00 0.00 0.00 0.00 0.00 0.00 0.00 0.00 0.00 0.00 0.00 0.00 0.00 0.00 0.00 0.00 0.00 0.02 0.02 0.02 0.02 0.02 0.01
0.00 0.00 0.00 0.00 0.00 0.00 0.00 0.00 0.00 0.00 0.00 0.00 0.00 0.00 0.00 0.00 0.00 0.00 0.00 0.00 0.00 0.00 0.00 0.00 0.00 0.00 0.00 0.00 0.00 0.00 0.00 0.00 0.00 0.00 0.00 0.00 0.00 0.02 0.02 0.02 0.02 0.02 0.02
0.00 0.00 0.00 0.00 0.00 0.00 0.00 0.00 0.00 0.00 0.00 0.00 0.00 0.00 0.00 0.00 0.00 0.00 0.00 0.00 0.00 0.00 0.00 0.00 0.00 0.00 0.00 0.00 0.00 0.00 0.00 0.00 0.00 0.00 0.00 0.00 0.00 0.01 0.02 0.01 0.01 0.01 0.01
0.00 0.00 0.00 0.00 0.00 0.00 0.00 0.00 0.00 0.00 0.00 0.00 0.00 0.00 0.00 0.00 0.00 0.00 0.00 0.00 0.00 0.00 0.00 0.00 0.00 0.00 0.00 0.00 0.00 0.00 0.00 0.00 0.00 0.00 0.00 0.00 0.00 0.01 0.01 0.01 0.01 0.01 0.01
0.00 0.00 0.00 0.00 0.00 0.00 0.00 0.00 0.00 0.00 0.00 0.00 0.00 0.00 0.00 0.00 0.00 0.00 0.00 0.00 0.00 0.00 0.00 0.00 0.00 0.00 0.00 0.00 0.00 0.00 0.00 0.00 0.00 0.00 0.00 0.00 0.00 0.01 0.01 0.01 0.01 0.01 0.01
0.00 0.00 0.00 0.00 0.00 0.00 0.00 0.00 0.00 0.00 0.00 0.00 0.00 0.00 0.00 0.00 0.00 0.00 0.00 0.00 0.00 0.00 0.00 0.00 0.00 0.00 0.00 0.00 0.00 0.00 0.00 0.00 0.00 0.00 0.00 0.00 0.00 0.00 0.01 0.00 0.00 0.01 0.01
0.00 0.00 0.00 0.00 0.00 0.00 0.00 0.00 0.00 0.00 0.00 0.00 0.00 0.00 0.00 0.00 0.00 0.00 0.00 0.00 0.00 0.00 0.00 0.00 0.00 0.00 0.00 0.00 0.00 0.00 0.00 0.00 0.00 0.00 0.00 0.00 0.00 0.00 0.00 0.00 0.00 0.00 0.00
0.00 0.00 0.00 0.00 0.00 0.00 0.00 0.00 0.00 0.00 0.00 0.00 0.00 0.00 0.00 0.00 0.00 0.00 0.00 0.00 0.00 0.00 0.00 0.00 0.00 0.00 0.00 0.00 0.00 0.00 0.00 0.00 0.00 0.00 0.00 0.00 0.00 0.00 0.00 0.00 0.00 0.00 0.00
0.00 0.00 0.00 0.00 0.00 0.00 0.00 0.00 0.00 0.00 0.00 0.00 0.00 0.00 0.00 0.00 0.00 0.00 0.00 0.00 0.00 0.00 0.00 0.00 0.00 0.00 0.00 0.00 0.00 0.00 0.00 0.00 0.00 0.00 0.00 0.00 0.00 0.00 0.00 0.00 0.00 0.00 0.00
0.00 0.00 0.00 0.00 0.00 0.00 0.00 0.00 0.00 0.00 0.00 0.00 0.00 0.00 0.00 0.00 0.00 0.00 0.00 0.00 0.00 0.00 0.00 0.00 0.00 0.00 0.00 0.00 0.00 0.00 0.00 0.00 0.00 0.00 0.00 0.00 0.00 0.00 0.00 0.00 0.00 0.00 0.00
0.00 0.00 0.00 0.00 0.00 0.00 0.00 0.00 0.00 0.00 0.00 0.00 0.00 0.00 0.00 0.00 0.00 0.00 0.00 0.00 0.00 0.00 0.00 0.00 0.00 0.00 0.00 0.00 0.00 0.00 0.00 0.00 0.00 0.00 0.00 0.00 0.00 0.00 0.00 0.00 0.00 0.00 0.00
0.00 0.00 0.00 0.00 0.00 0.00 0.00 0.00 0.00 0.00 0.00 0.00 0.00 0.00 0.00 0.00 0.00 0.00 0.00 0.00 0.00 0.00 0.00 0.00 0.00 0.00 0.00 0.00 0.00 0.00 0.00 0.00 0.00 0.00 0.00 0.00 0.00 0.00 0.00 0.00 0.00 0.00 0.00
0.00 0.00 0.00 0.00 0.00 0.00 0.00 0.00 0.00 0.00 0.00 0.00 0.00 0.00 0.00 0.00 0.00 0.00 0.00 0.00 0.00 0.00 0.00 0.00 0.00 0.00 0.00 0.00 0.00 0.00 0.00 0.00 0.00 0.00 0.00 0.00 0.00 0.00 0.00 0.00 0.00 0.00 0.00
0.00 0.00 0.00 0.00 0.00 0.00 0.00 0.00 0.00 0.00 0.00 0.00 0.00 0.00 0.00 0.00 0.00 0.00 0.00 0.00 0.00 0.00 0.00 0.00 0.00 0.00 0.00 0.00 0.00 0.00 0.00 0.00 0.00 0.00 0.00 0.00 0.00 0.00 0.00 0.00 0.00 0.00 0.00
0.00 0.00 0.00 0.00 0.00 0.00 0.00 0.00 0.00 0.00 0.00 0.00 0.00 0.00 0.00 0.00 0.00 0.00 0.00 0.00 0.00 0.00 0.00 0.00 0.00 0.00 0.00 0.00 0.00 0.00 0.00 0.00 0.00 0.00 0.00 0.00 0.00 0.00 0.00 0.00 0.00 0.00 0.00
0.00 0.00 0.00 0.00 0.00 0.00 0.00 0.00 0.00 0.00 0.00 0.00 0.00 0.00 0.00 0.00 0.00 0.00 0.00 0.00 0.00 0.00 0.00 0.00 0.00 0.00 0.00 0.00 0.00 0.00 0.00 0.00 0.00 0.00 0.00 0.00 0.00 0.00 0.00 0.00 0.00 0.00 0.00
0.00 0.00 0.00 0.00 0.00 0.00 0.00 0.00 0.00 0.00 0.00 0.00 0.00 0.00 0.00 0.00 0.00 0.00 0.00 0.00 0.00 0.00 0.00 0.00 0.00 0.00 0.00 0.00 0.00 0.00 0.00 0.00 0.00 0.00 0.00 0.00 0.00 0.00 0.00 0.00 0.00 0.00 0.00
0.00 0.00 0.00 0.00 0.00 0.00 0.00 0.00 0.00 0.00 0.00 0.00 0.00 0.00 0.00 0.00 0.00 0.00 0.00 0.00 0.00 0.00 0.00 0.00 0.00 0.00 0.00 0.00 0.00 0.00 0.00 0.00 0.00 0.00 0.00 0.00 0.00 0.00 0.00 0.00 0.00 0.00 0.00
0.00 0.00 0.00 0.00 0.00 0.00 0.00 0.00 0.00 0.00 0.00 0.00 0.00 0.00 0.00 0.00 0.00 0.00 0.00 0.00 0.00 0.00 0.00 0.00 0.00 0.00 0.00 0.00 0.00 0.00 0.00 0.00 0.00 0.00 0.00 0.00 0.00 0.00 0.00 0.00 0.00 0.00 0.00
0.00 0.00 0.00 0.00 0.00 0.00 0.00 0.00 0.00 0.00 0.00 0.00 0.00 0.00 0.00 0.00 0.00 0.00 0.00 0.00 0.00 0.00 0.00 0.00 0.00 0.00 0.00 0.00 0.00 0.00 0.00 0.00 0.00 0.00 0.00 0.00 0.00 0.00 0.00 0.00 0.00 0.00 0.00
0.00 0.00 0.00 0.00 0.00 0.00 0.00 0.00 0.00 0.00 0.00 0.00 0.00 0.00 0.00 0.00 0.00 0.00 0.00 0.00 0.00 0.00 0.00 0.00 0.00 0.00 0.00 0.00 0.00 0.00 0.00 0.00 0.00 0.00 0.00 0.00 0.00 0.00 0.00 0.00 0.00 0.00 0.00
0.00 0.00 0.00 0.00 0.00 0.00 0.00 0.00 0.00 0.00 0.00 0.00 0.00 0.00 0.00 0.00 0.00 0.00 0.00 0.00 0.00 0.00 0.00 0.00 0.00 0.00 0.00 0.00 0.00 0.00 0.00 0.00 0.00 0.00 0.00 0.00 0.00 0.00 0.00 0.00 0.00 0.00 0.00
0.00 0.00 0.00 0.00 0.00 0.00 0.00 0.00 0.00 0.00 0.00 0.00 0.00 0.00 0.00 0.00 0.00 0.00 0.00 0.00 0.00 0.00 0.00 0.00 0.00 0.00 0.00 0.00 0.00 0.00 0.00 0.00 0.00 0.00 0.00 0.00 0.00 0.00 0.00 0.00 0.00 0.00 0.00
MSLP
1021.95 1021.92 1021.97 1022.12 1022.37 1022.67 1022.99 1023.28 1023.51 1023.65 1023.71 1023.72 1023.71 1023.72 1023.78 1023.88 1024.03 1024.19 1024.35 1024.46 1024.54 1024.55 1024.53 1024.49 1024.44 1024.41 1024.39 1024.39 1024.39 1024.36 1024.30 1024.20 1024.06 1023.88 1023.68 1023.49 1023.32 1023.18 1023.09 1023.03 1022.99 1022.95 1022.90
1021.34 1021.40 1021.52 1021.74 1022.04 1022.39 1022.75 1023.07 1023.33 1023.51 1023.62 1023.70 1023.78 1023.88 1024.04 1024.24 1024.46 1024.69 1024.88 1025.01 1025.08 1025.08 1025.03 1024.97 1024.90 1024.86 1024.84 1024.85 1024.86 1024.87 1024.84 1024.77 1024.66 1024.50 1024.33 1024.15 1023.97 1023.83 1023.71 1023.62 1023.54 1023.47 1023.39
1020.78 1020.91 1021.10 1021.39 1021.74 1022.14 1022.53 1022.88 1023.18 1023.40 1023.58 1023.73 1023.88 1024.07 1024.31 1024.58 1024.86 1025.12 1025.33 1025.46 1025.51 1025.49 1025.43 1025.34 1025.27 1025.22 1025.22 1025.24 1025.28 1025.32 1025.34 1025.32 1025.25 1025.14 1024.99 1024.82 1024.64 1024.48 1024.32 1024.19 1024.07 1023.96 1023.84
1020.30 1020.50 1020.76 1021.10 1021.50 1021.93 1022.36 1022.75 1023.07 1023.34 1023.56 1023.77 1023.99 1024.24 1024.52 1024.83 1025.13 1025.40 1025.61 1025.73 1025.77 1025.74 1025.67 1025.59 1025.52 1025.50 1025.51 1025.57 1025.65 1025.73 1025.80 1025.82 1025.80 1025.73 1025.61 1025.45 1025.27 1025.08 1024.89 1024.70 1024.54 1024.38 1024.24
1019.96 1020.21 1020.52 1020.90 1021.34 1021.80 1022.25 1022.66 1023.01 1023.30 1023.55 1023.79 1024.04 1024.32 1024.62 1024.94 1025.24 1025.49 1025.69 1025.80 1025.83 1025.81 1025.76 1025.71 1025.69 1025.70 1025.76 1025.86 1025.98 1026.10 1026.21 1026.27 1026.29 1026.25 1026.15 1026.00 1025.81 1025.59 1025.36 1025.13 1024.92 1024.73 1024.57
1019.75 1020.03 1020.38 1020.79 1021.25 1021.72 1022.18 1022.59 1022.95 1023.25 1023.51 1023.76 1024.02 1024.30 1024.60 1024.90 1025.18 1025.42 1025.60 1025.71 1025.76 1025.77 1025.77 1025.78 1025.81 1025.88 1025.99 1026.13 1026.28 1026.44 1026.57 1026.66 1026.70 1026.67 1026.58 1026.43 1026.22 1025.97 1025.71 1025.45 1025.21 1025.01 1024.85
1019.65 1019.95 1020.31 1020.74 1021.20 1021.68 1022.13 1022.53 1022.87 1023.17 1023.43 1023.68 1023.93 1024.20 1024.49 1024.77 1025.03 1025.26 1025.43 1025.55 1025.64 1025.70 1025.77 1025.84 1025.94 1026.08 1026.24 1026.41 1026.58 1026.74 1026.88 1026.97 1027.01 1026.98 1026.89 1026.72 1026.50 1026.23 1025.95 1025.67 1025.42 1025.22 1025.08
1019.63 1019.93 1020.30 1020.72 1021.17 1021.63 1022.06 1022.44 1022.77 1023.05 1023.29 1023.54 1023.79 1024.06 1024.34 1024.61 1024.87 1025.09 1025.28 1025.43 1025.56 1025.69 1025.81 1025.96 1026.13 1026.32 1026.51 1026.70 1026.88 1027.02 1027.14 1027.21 1027.23 1027.18 1027.08 1026.90 1026.67 1026.39 1026.10 1025.81 1025.57 1025.38 1025.26
1019.64 1019.93 1020.28 1020.69 1021.13 1021.56 1021.96 1022.32 1022.62 1022.88 1023.13 1023.38 1023.64 1023.92 1024.22 1024.50 1024.78 1025.02 1025.23 1025.41 1025.59 1025.76 1025.95 1026.15 1026.37 1026.59 1026.80 1026.98 1027.14 1027.26 1027.34 1027.37 1027.36 1027.30 1027.17 1026.99 1026.75 1026.48 1026.19 1025.92 1025.69 1025.52 1025.42
1019.61 1019.89 1020.24 1020.64 1021.05 1021.46 1021.83 1022.16 1022.44 1022.70 1022.95 1023.22 1023.52 1023.84 1024.17 1024.49 1024.79 1025.06 1025.30 1025.51 1025.71 1025.92 1026.14 1026.38 1026.62 1026.85 1027.05 1027.22 1027.34 1027.43 1027.47 1027.46 1027.42 1027.34 1027.21 1027.03 1026.80 1026.54 1026.27 1026.01 1025.79 1025.64 1025.55
1019.48 1019.77 1020.12 1020.52 1020.93 1021.32 1021.67 1021.97 1022.24 1022.50 1022.78 1023.08 1023.43 1023.80 1024.18 1024.56 1024.90 1025.20 1025.46 1025.69 1025.90 1026.12 1026.34 1026.58 1026.81 1027.03 1027.22 1027.36 1027.46 1027.51 1027.51 1027.49 1027.43 1027.34 1027.21 1027.04 1026.84 1026.60 1026.35 1026.10 1025.90 1025.74 1025.65
1019.21 1019.53 1019.91 1020.33 1020.74 1021.13 1021.46 1021.76 1022.03 1022.30 1022.61 1022.96 1023.36 1023.79 1024.23 1024.66 1025.04 1025.37 1025.63 1025.86 1026.07 1026.26 1026.47 1026.68 1026.90 1027.09 1027.26 1027.38 1027.46 1027.49 1027.48 1027.45 1027.38 1027.30 1027.18 1027.04 1026.86 1026.65 1026.41 1026.18 1025.97 1025.80 1025.69
1018.77 1019.14 1019.57 1020.03 1020.47 1020.86 1021.21 1021.50 1021.79 1022.08 1022.42 1022.81 1023.26 1023.76 1024.25 1024.72 1025.14 1025.48 1025.75 1025.96 1026.14 1026.31 1026.48 1026.66 1026.84 1027.02 1027.17 1027.29 1027.36 1027.38 1027.38 1027.34 1027.29 1027.21 1027.12 1026.99 1026.84 1026.65 1026.43 1026.21 1025.99 1025.80 1025.65
1018.16 1018.60 1019.09 1019.61 1020.09 1020.52 1020.88 1021.20 1021.50 1021.82 1022.19 1022.62 1023.11 1023.65 1024.18 1024.68 1025.12 1025.47 1025.73 1025.92 1026.07 1026.21 1026.35 1026.50 1026.67 1026.83 1026.98 1027.09 1027.17 1027.21 1027.21 1027.18 1027.13 1027.07 1026.98 1026.87 1026.74 1026.57 1026.37 1026.15 1025.92 1025.71 1025.52
1017.41 1017.92 1018.49 1019.06 1019.60 1020.07 1020.48 1020.83 1021.16 1021.50 1021.89 1022.35 1022.87 1023.42 1023.98 1024.49 1024.93 1025.28 1025.54 1025.73 1025.86 1025.98 1026.11 1026.25 1026.41 1026.57 1026.73 1026.85 1026.94 1026.98 1026.99 1026.96 1026.91 1026.84 1026.75 1026.65 1026.52 1026.36 1026.17 1025.96 1025.74 1025.51 1025.29
1016.58 1017.15 1017.78 1018.41 1019.00 1019.53 1019.98 1020.38 1020.74 1021.11 1021.53 1021.99 1022.51 1023.07 1023.61 1024.13 1024.57 1024.92 1025.19 1025.38 1025.53 1025.66 1025.80 1025.95 1026.13 1026.31 1026.47 1026.61 1026.70 1026.74 1026.73 1026.68 1026.60 1026.50 1026.40 1026.28 1026.14 1026.00 1025.83 1025.63 1025.42 1025.21 1024.99
1015.76 1016.35 1017.01 1017.68 1018.32 1018.90 1019.41 1019.86 1020.27 1020.67 1021.09 1021.55 1022.06 1022.59 1023.12 1023.61 1024.06 1024.42 1024.70 1024.93 1025.12 1025.29 1025.47 1025.66 1025.86 1026.06 1026.24 1026.38 1026.46 1026.47 1026.43 1026.33 1026.20 1026.06 1025.91 1025.76 1025.62 1025.48 1025.33 1025.17 1025.00 1024.81 1024.62
1015.03 1015.60 1016.25 1016.93 1017.61 1018.24 1018.80 1019.30 1019.75 1020.18 1020.61 1021.06 1021.54 1022.03 1022.52 1022.99 1023.43 1023.81 1024.13 1024.41 1024.66 1024.90 1025.14 1025.38 1025.62 1025.84 1026.02 1026.15 1026.20 1026.17 1026.07 1025.91 1025.72 1025.51 1025.30 1025.12 1024.97 1024.83 1024.71 1024.60 1024.49 1024.36 1024.22
1014.46 1014.96 1015.56 1016.23 1016.91 1017.57 1018.18 1018.73 1019.23 1019.69 1020.12 1020.54 1020.97 1021.41 1021.86 1022.29 1022.71 1023.11 1023.48 1023.82 1024.14 1024.46 1024.77 1025.07 1025.34 1025.58 1025.77 1025.87 1025.88 1025.80 1025.64 1025.41 1025.14 1024.87 1024.61 1024.40 1024.23 1024.11 1024.02 1023.97 1023.92 1023.86 1023.79
1014.10 1014.50 1015.02 1015.63 1016.29 1016.96 1017.61 1018.20 1018.73 1019.20 1019.62 1020.02 1020.39 1020.77 1021.15 1021.54 1021.94 1022.34 1022.74 1023.14 1023.54 1023.92 1024.30 1024.65 1024.96 1025.21 1025.38 1025.46 1025.44 1025.31 1025.10 1024.81 1024.49 1024.17 1023.87 1023.63 1023.46 1023.35 1023.30 1023.30 1023.32 1023.34 1023.34
1013.97 1014.24 1014.65 1015.18 1015.79 1016.45 1017.11 1017.72 1018.28 1018.75 1019.15 1019.50 1019.81 1020.10 1020.41 1020.73 1021.09 1021.48 1021.90 1022.34 1022.79 1023.23 1023.65 1024.03 1024.37 1024.62 1024.79 1024.85 1024.81 1024.66 1024.42 1024.12 1023.78 1023.43 1023.12 1022.87 1022.70 1022.60 1022.58 1022.62 1022.69 1022.77 1022.83
1014.06 1014.18 1014.46 1014.90 1015.45 1016.07 1016.71 1017.33 1017.88 1018.34 1018.70 1018.98 1019.21 1019.42 1019.63 1019.88 1020.18 1020.53 1020.94 1021.38 1021.85 1022.32 1022.76 1023.16 1023.50 1023.76 1023.93 1023.99 1023.96 1023.83 1023.61 1023.33 1023.01 1022.68 1022.38 1022.14 1021.97 1021.88 1021.87 1021.93 1022.03 1022.15 1022.25
1014.31 1014.31 1014.46 1014.79 1015.25 1015.81 1016.42 1017.01 1017.53 1017.95 1018.26 1018.47 1018.61 1018.71 1018.82 1018.97 1019.19 1019.48 1019.85 1020.27 1020.71 1021.17 1021.60 1021.99 1022.33 1022.59 1022.77 1022.87 1022.88 1022.81 1022.66 1022.45 1022.19 1021.92 1021.66 1021.44 1021.28 1021.19 1021.17 1021.22 1021.32 1021.45 1021.57
1014.67 1014.56 1014.60 1014.82 1015.19 1015.68 1016.22 1016.75 1017.22 1017.58 1017.82 1017.95 1017.98 1017.98 1017.99 1018.04 1018.16 1018.37 1018.66 1019.02 1019.42 1019.82 1020.22 1020.58 1020.90 1021.16 1021.37 1021.52 1021.60 1021.62 1021.58 1021.48 1021.32 1021.13 1020.93 1020.74 1020.59 1020.49 1020.45 1020.48 1020.55 1020.67 1020.79
1015.07 1014.88 1014.83 1014.94 1015.22 1015.62 1016.08 1016.53 1016.93 1017.22 1017.38 1017.41 1017.36 1017.26 1017.16 1017.11 1017.13 1017.25 1017.46 1017.73 1018.04 1018.38 1018.70 1019.02 1019.30 1019.57 1019.80 1020.01 1020.18 1020.31 1020.40 1020.42 1020.39 1020.30 1020.17 1020.02 1019.87 1019.75 1019.68 1019.67 1019.72 1019.80 1019.91
1015.45 1015.21 1015.09 1015.12 1015.30 1015.60 1015.97 1016.33 1016.64 1016.84 1016.92 1016.88 1016.74 1016.55 1016.37 1016.23 1016.17 1016.20 1016.31 1016.48 1016.70 1016.94 1017.18 1017.43 1017.67 1017.91 1018.16 1018.42 1018.68 1018.92 1019.13 1019.28 1019.37 1019.38 1019.32 1019.21 1019.07 1018.94 1018.85 1018.80 1018.81 1018.88 1018.98
Thickness
5698 5697 5695 5692 5689 5686 5685 5683 5682 5680 5679 5678 5677 5676 5676 5675 5674 5674 5674 5674 5673 5673 5673 5674 5674 5674 5674 5675 5676 5676 5677 5677 5679 5680 5682 5684 5686 5686 5687 5688 5688 5690 5692
5706 5699 5696 5693 5689 5687 5684 5682 5680 5678 5676 5675 5674 5673 5672 5671 5670 5670 5669 5669 5668 5668 5668 5668 5668 5668 5669 5669 5669 5670 5670 5670 5671 5673 5674 5676 5678 5680 5680 5681 5682 5684 5685
5706 5701 5697 5693 5690 5686 5684 5681 5679 5676 5674 5673 5671 5670 5669 5668 5666 5665 5665 5664 5663 5663 5663 5662 5662 5662 5663 5663 5663 5663 5663 5663 5664 5665 5667 5669 5671 5673 5673 5674 5675 5677 5678
5706 5702 5698 5694 5690 5686 5683 5680 5677 5675 5673 5671 5669 5667 5666 5664 5663 5662 5661 5659 5658 5658 5657 5657 5657 5657 5657 5657 5657 5656 5656 5656 5656 5657 5660 5662 5664 5666 5666 5667 5668 5669 5671
5705 5702 5698 5694 5689 5686 5682 5679 5676 5674 5671 5669 5667 5665 5663 5662 5660 5658 5657 5655 5654 5653 5652 5652 5651 5651 5651 5651 5651 5650 5649 5648 5648 5650 5652 5655 5657 5658 5659 5659 5660 5661 5663
5705 5701 5697 5693 5689 5685 5682 5679 5676 5673 5671 5668 5666 5664 5661 5659 5657 5655 5653 5652 5650 5649 5648 5647 5647 5646 5646 5646 5646 5644 5642 5641 5641 5643 5645 5647 5650 5651 5651 5652 5653 5654 5655
5704 5700 5696 5692 5688 5685 5681 5678 5675 5672 5670 5667 5665 5662 5660 5657 5655 5653 5651 5649 5647 5645 5644 5643 5642 5641 5641 5640 5640 5639 5637 5635 5635 5636 5638 5640 5642 5643 5644 5644 5645 5646 5647
5703 5698 5694 5691 5687 5684 5681 5677 5674 5671 5669 5666 5663 5661 5658 5655 5653 5650 5648 5646 5644 5642 5640 5639 5638 5637 5636 5635 5634 5633 5631 5630 5629 5630 5631 5633 5635 5636 5636 5636 5637 5638 5639
5700 5696 5693 5690 5686 5683 5680 5677 5674 5671 5668 5665 5662 5659 5657 5654 5651 5648 5645 5643 5641 5639 5637 5635 5633 5632 5631 5630 5629 5628 5626 5624 5623 5623 5624 5625 5627 5628 5628 5628 5628 5629 5630
5695 5693 5690 5688 5685 5682 5679 5675 5672 5669 5666 5663 5661 5658 5654 5652 5649 5646 5643 5640 5638 5635 5633 5631 5629 5627 5626 5625 5624 5622 5620 5618 5617 5617 5617 5618 5619 5620 5620 5619 5619 5620 5620
5692 5691 5689 5686 5684 5680 5677 5674 5671 5667 5664 5661 5658 5655 5652 5649 5646 5644 5640 5638 5635 5632 5630 5627 5625 5623 5621 5620 5618 5617 5615 5613 5612 5611 5611 5611 5611 5612 5611 5611 5610 5611 5611
5693 5691 5688 5686 5682 5679 5675 5672 5669 5666 5663 5660 5656 5653 5650 5646 5643 5640 5637 5634 5632 5629 5626 5623 5621 5619 5617 5615 5613 5611 5610 5608 5606 5605 5604 5604 5604 5603 5603 5602 5602 5602 5602
5698 5691 5689 5685 5681 5677 5673 5670 5667 5663 5660 5657 5654 5650 5646 5643 5639 5636 5633 5631 5629 5626 5623 5620 5617 5614 5612 5610 5608 5606 5604 5602 5601 5599 5598 5597 5596 5595 5595 5594 5593 5593 5593
5697 5693 5690 5685 5681 5677 5672 5668 5665 5661 5657 5654 5651 5647 5643 5639 5636 5633 5630 5627 5624 5622 5618 5615 5612 5609 5606 5604 5602 5600 5599 5597 5595 5594 5592 5590 5589 5588 5587 5586 5585 5584 5584
5697 5694 5690 5685 5681 5676 5671 5667 5663 5659 5655 5652 5648 5644 5641 5636 5632 5629 5625 5622 5619 5616 5613 5610 5607 5603 5601 5599 5597 5595 5593 5591 5589 5587 5585 5583 5581 5580 5579 5578 5576 5576 5575
5699 5695 5691 5686 5681 5676 5671 5666 5663 5658 5653 5648 5645 5641 5638 5633 5629 5624 5620 5617 5614 5611 5608 5605 5602 5598 5595 5592 5591 5589 5587 5585 5583 5581 5578 5576 5574 5572 5570 5569 5567 5566 5565
5701 5696 5690 5685 5679 5674 5670 5664 5659 5655 5650 5646 5642 5638 5634 5630 5625 5620 5616 5612 5609 5606 5603 5599 5595 5592 5589 5586 5584 5582 5581 5579 5577 5574 5572 5569 5566 5564 5561 5559 5558 5556 5555
5699 5694 5689 5683 5677 5672 5668 5662 5657 5652 5647 5643 5638 5634 5630 5625 5620 5615 5611 5608 5603 5599 5596 5592 5588 5585 5582 5579 5577 5575 5574 5572 5570 5568 5565 5562 5559 5556 5553 5550 5548 5546 5544
5699 5693 5686 5681 5676 5670 5664 5659 5654 5649 5644 5640 5634 5630 5625 5619 5614 5610 5606 5602 5597 5592 5589 5585 5582 5578 5575 5572 5569 5568 5566 5564 5563 5560 5558 5555 5552 5548 5545 5541 5538 5536 5534
5697 5691 5685 5678 5673 5666 5658 5651 5646 5642 5639 5635 5631 5627 5621 5616 5610 5605 5601 5596 5590 5585 5582 5578 5575 5571 5568 5564 5559 5560 5559 5557 5555 5554 5551 5548 5545 5541 5537 5533 5529 5526 5523
5692 5686 5681 5675 5669 5661 5652 5646 5641 5639 5635 5631 5628 5624 5619 5613 5607 5601 5597 5591 5585 5580 5577 5572 5567 5562 5558 5550 5544 5545 5549 5549 5550 5548 5544 5542 5539 5535 5530 5526 5521 5517 5513
5686 5681 5676 5671 5666 5659 5654 5648 5641 5636 5631 5627 5622 5618 5614 5609 5604 5598 5593 5588 5582 5576 5571 5566 5559 5553 5549 5541 5534 5529 5531 5541 5546 5546 5543 5538 5534 5527 5523 5518 5513 5509 5505
5676 5673 5670 5665 5660 5655 5649 5640 5632 5626 5622 5618 5615 5612 5610 5606 5601 5596 5591 5584 5578 5572 5568 5562 5554 5547 5542 5535 5529 5521 5515 5529 5532 5537 5536 5533 5527 5521 5516 5510 5505 5501 5496
5666 5664 5661 5656 5651 5646 5640 5633 5626 5621 5619 5619 5615 5611 5606 5601 5596 5592 5586 5580 5575 5568 5564 5558 5550 5543 5535 5530 5522 5519 5517 5513 5509 5518 5523 5520 5517 5513 5507 5501 5497 5493 5488
5655 5652 5649 5646 5642 5637 5631 5626 5620 5617 5617 5613 5607 5602 5599 5595 5590 5586 5581 5575 5570 5564 5560 5553 5546 5538 5531 5527 5520 5512 5506 5501 5495 5490 5503 5506 5501 5501 5497 5492 5487 5483 5478
5643 5641 5638 5635 5631 5627 5621 5616 5611 5609 5606 5602 5598 5594 5591 5588 5584 5580 5574 5569 5565 5560 5555 5548 5540 5533 5528 5522 5516 5508 5500 5495 5495 5486 5485 5491 5488 5487 5483 5481 5477 5472 5467